Regional Weather Roundup
Issued by NWS

Home | Current Version | Previous Version | Text Only | Print | Product List | Glossary On
Versions: 1 2 3 4 5 6 7 8 9 10 11 12 13 14 15 16 17 18 19 20 21 22 23 24 25 26 27 28 29 30 31 32 33 34 35 36 37 38 39 40 41 42 43 44 45 46 47 48 49 50
000
ASUS44 KMEG 230510
RWRTN
TENNESSEE HOURLY STATE WEATHER ROUNDUP
NATIONAL WEATHER SERVICE MEMPHIS TN
1200 AM CDT THU OCT 23 2014

TNZ002-004-019-021-049-052-054-088>092-230600-
WEST TENNESSEE

CITY           SKY/WX    TMP DP  RH WIND       PRES   REMARKS
MEMPHIS INTL   CLEAR     55  43  63 NE7       30.19R
NWS MEMPHIS      N/A     51 N/A N/A MISG        N/A
JACKSON        CLEAR     45  41  86 CALM      30.20S
DYERSBURG      CLEAR     46  34  61 NE6       30.22F
UNION CITY     CLEAR     39  39 100 CALM      30.20F
PARIS          CLEAR     39  37  93 CALM      30.21F
HUNTINGDON     CLEAR     42  39  89 CALM      30.21S
LEXINGTON      CLEAR     41  39  93 CALM      30.18F
SAVANNAH       CLEAR     39  39 100 CALM      30.19S
$$

TNZ008-025-027-028-033-062-065-066-230600-
NORTH MIDDLE TENNESSEE

CITY           SKY/WX    TMP DP  RH WIND       PRES   REMARKS
NASHVILLE      CLEAR     48  42  80 CALM      30.22F
CLARKSVILLE    CLEAR     43  41  93 E6        30.22S
SMYRNA         CLEAR     47  42  82 CALM      30.22F
COOKEVILLE     CLEAR     36  36 100 CALM      30.20F
CROSSVILLE     CLEAR     41  36  82 CALM      30.20F
$$

TNZ061-075-076-078-094-096-097-230600-
SOUTH MIDDLE TENNESSEE

CITY           SKY/WX    TMP DP  RH WIND       PRES   REMARKS
FAYETTEVILLE   CLEAR     43  39  87 NE7       30.18S
TULLAHOMA      CLEAR     46  41  81 NE5       30.20S
WINCHESTER     CLEAR     37  37 100 CALM      30.19F
MCMINNVILLE    CLEAR     43  41  93 CALM      30.20F
COLUMBIA       CLEAR    N/A N/A N/A CALM      30.18S
SHELBYVILLE    CLEAR     43  41  93 E5        30.20F
$$

TNZ017-018-042-046-047-230600-
NORTHEAST TENNESSEE

CITY           SKY/WX    TMP DP  RH WIND       PRES   REMARKS
TRI CITIES     CLOUDY    48  42  80 NW3       30.20S
ELIZABETHTON   CLOUDY    45  39  81 W5        30.19S
$$

TNZ012-013-036-069-073-074-230600-
CENTRAL EAST TENNESSEE

CITY           SKY/WX    TMP DP  RH WIND       PRES   REMARKS
KNOXVILLE      CLEAR     42  38  85 NE8       30.20F
OAK RIDGE      CLEAR     43  39  86 CALM      30.22F
GATLINBURG     CLOUDY    43  39  87 CALM      30.20F
MORRISTOWN     CLOUDY    48  41  76 CALM      30.21F
$$

TNZ083-085-099-230600-
SOUTHEAST TENNESSEE

CITY           SKY/WX    TMP DP  RH WIND       PRES   REMARKS
CHATTANOOGA    CLEAR     50  40  68 N13       30.19F
$$

SKY/WX REPORTED AS FAIR MEANS FEW OR NO CLOUDS BELOW
12 THOUSAND FEET.




USA.gov is the U.S. government's official web portal to all federal, state and local government web resources and services.